Weather History for KRAP - October, 2010

Change the Weather History Date:

Monday, October 18, 2010

  Actual Average Record
Temperature  
Mean Temperature 45 °F 47 °F  
Max Temperature 60 °F 61 °F 86 °F (2000)
Min Temperature 29 °F 33 °F 16 °F (1972)
Degree Days  
Heating Degree Days 20 18  
Month to date heating degree days 154 268  
Since 1 July heating degree days 342 492  
Cooling Degree Days 0 0  
Month to date cooling degree days 11 0  
Year to date cooling degree days 532 633  
Moisture  
Dew Point 27 °F    
Average Humidity 59    
Maximum Humidity 92    
Minimum Humidity 25    
Precipitation  
Precipitation 0.00 in 0.04 in 0.39 in (1965)
Month to date precipitation 0.16 0.93  
Year to date precipitation 18.05 14.85  
Snow  
Snow 0.00 in 0.10 in - ()
Month to date snowfall 0.0 0.5  
Since 1 July snowfall 0.0 0.7  
Since 1 September snowfall 0.0 0.7  
Snow Depth 0.00 in    
Sea Level Pressure  
Sea Level Pressure 30.16 in    
Wind  
Wind Speed 6 mph (NNW)    
Max Wind Speed 15 mph    
Max Gust Speed 22 mph    
Visibility 10 miles    
Events      
T = Trace of Precipitation, MM = Missing Value Source: NWS Daily Summary

Daily Weather History Graph

Daily Weather History Graph

Search for Another Location

Airport or City:

Trip Planner

Search our weather history database for the weather conditions in past years. The results will help you decide how hot, cold, wet, or windy it might be!

Date:

Astronomy

Oct. 18, 2010 Rise Set
Actual Time 7:10 AM MDT 6:03 PM MDT
Civil Twilight 6:41 AM MDT 6:32 PM MDT
Nautical Twilight 6:07 AM MDT 7:06 PM MDT
Astronomical Twilight 5:34 AM MDT 7:39 PM MDT
Moon 3:55 PM MDT (10/18) 2:53 AM MDT (10/18)
Length of Visible Light 11h 51m
Length of Day
10h 52m
Waxing Gibbous, 84% of the Moon is Illuminated
Oct 18
Waxing Gibbous
Oct 22
Full
Oct 30
Last Quarter
Nov 5
New
Nov 13
First Quarter

Hourly Weather History & Observations

Time (MDT) Temp. Windchill Dew Point Humidity Pressure Visibility Wind Dir Wind Speed Gust Speed Precip Events Conditions
12:52 AM 44.1 °F 38.1 °F 37.9 °F 79% 30.15 in 10.0 mi NNW 11.5 mph - N/A   Clear
1:52 AM 41.0 °F 34.7 °F 37.0 °F 86% 30.16 in 10.0 mi North 10.4 mph - N/A   Clear
2:52 AM 37.9 °F 30.5 °F 36.0 °F 93% 30.18 in 10.0 mi North 11.5 mph - N/A   Clear
3:52 AM 35.1 °F 28.6 °F 32.0 °F 89% 30.18 in 10.0 mi NNW 8.1 mph - N/A   Clear
4:52 AM 33.1 °F 26.9 °F 30.0 °F 89% 30.20 in 10.0 mi WNW 6.9 mph - N/A   Partly Cloudy
5:52 AM 30.9 °F 25.2 °F 28.9 °F 92% 30.23 in 10.0 mi NNW 5.8 mph - N/A   Clear
6:52 AM 33.1 °F 24.9 °F 28.0 °F 82% 30.24 in 10.0 mi North 10.4 mph - N/A   Clear
7:52 AM 37.0 °F 30.4 °F 27.0 °F 67% 30.24 in 10.0 mi NNW 9.2 mph - N/A   Clear
8:52 AM 45.0 °F 40.1 °F 27.0 °F 49% 30.24 in 10.0 mi NW 9.2 mph - N/A   Clear
9:52 AM 50.0 °F - 26.1 °F 39% 30.23 in 10.0 mi NNW 15.0 mph - N/A   Clear
10:52 AM 51.1 °F - 25.0 °F 36% 30.22 in 10.0 mi NNW 9.2 mph 17.3 mph N/A   Clear
11:52 AM 54.0 °F - 25.0 °F 33% 30.21 in 10.0 mi NNW 9.2 mph 17.3 mph N/A   Clear
12:52 PM 55.9 °F - 25.0 °F 30% 30.18 in 10.0 mi North 9.2 mph - N/A   Clear
1:52 PM 57.0 °F - 25.0 °F 29% 30.15 in 10.0 mi North 8.1 mph - N/A   Clear
2:52 PM 57.0 °F - 24.1 °F 28% 30.13 in 10.0 mi Calm Calm - N/A   Clear
3:52 PM 60.1 °F - 25.0 °F 26% 30.11 in 10.0 mi Calm Calm - N/A   Clear
4:52 PM 57.0 °F - 24.1 °F 28% 30.11 in 10.0 mi East 5.8 mph - N/A   Clear
5:52 PM 50.0 °F - 24.1 °F 36% 30.13 in 10.0 mi ENE 6.9 mph - N/A   Clear
6:52 PM 44.1 °F 40.1 °F 23.0 °F 43% 30.14 in 10.0 mi East 6.9 mph - N/A   Clear
7:52 PM 43.0 °F - 21.0 °F 42% 30.14 in 10.0 mi Calm Calm - N/A   Clear
8:52 PM 34.0 °F - 23.0 °F 64% 30.12 in 10.0 mi Calm Calm - N/A   Clear
9:52 PM 41.0 °F 38.0 °F 26.1 °F 55% 30.09 in 10.0 mi SSW 4.6 mph - N/A   Clear
10:52 PM 39.0 °F 36.8 °F 26.1 °F 60% 30.08 in 10.0 mi South 3.5 mph - N/A   Clear
11:52 PM 39.9 °F 37.8 °F 28.0 °F 63% 30.04 in 10.0 mi South 3.5 mph - N/A   Clear